Flag for Australia Weather past 2 weeks in Ballarat, Victoria, Australia

Now
78 °F

Pleasantly warm.


Feels Like: 78 °F
Forecast: 43 / 61 °F
Wind: 9 mph from Northwest

Location: Sheoaks Aws

Current Time: Apr 1, 2015 at 3:56:53 PM

Latest Report: Apr 1, 2015 at 3:00 PM


Visibility: N/A

Pressure: 29.94 "Hg

Humidity: 32%

Dew point: 46 °F

Location of BallaratLocation

Historic Weather in Ballarat — Graph

°F

Ballarat temperature yesterday

Maximum temperature yesterday: 78 °F (at 3:00 PM)
Minimum temperature yesterday: 46 °F (at 6:00 AM)
Average temperature yesterday: 60 °F

Past Weeks' High & Low Weather Summary

 TemperatureHumidityPressure
High88 °F (Mar 19, 4:00 PM)96% (Mar 31, 7:00 AM)30.33 "Hg (Mar 31, 7:00 AM)
Low37 °F (Mar 21, 7:00 AM)27% (Mar 17, 1:00 PM)29.50 "Hg (Mar 17, 4:00 PM)
Average59 °F66%30.04 "Hg
* Reported Mar 17 1:00 PM — Apr 1 1:00 PM, Ballarat, Weather by CustomWeather, © 2015

Note: Actual official high and low records may vary slightly from our data, if they occured in-between our weather recording intervals... More about our weather records

Advertising

Ballarat weather history for previous 24 hours

 ConditionsComfort  
Time TempWeatherWind HumidityBarometerVisibility
1:00 PM
Wed, Apr 1
80 °FPleasantly warm.16 mph29%29.97 "HgN/A
12:00 PM77 °FPleasantly warm.14 mph34%30.01 "HgN/A
10:00 AM73 °FMild.6 mph38%30.05 "HgN/A
9:00 AM62 °FRefreshingly cool.3 mph55%30.06 "HgN/A
7:00 AM59 °FRefreshingly cool.2 mph57%30.06 "HgN/A
6:00 AM60 °FRefreshingly cool.3 mph56%30.07 "HgN/A
4:00 AM58 °FRefreshingly cool.6 mph57%30.10 "HgN/A
3:00 AM59 °FRefreshingly cool.8 mph58%30.11 "HgN/A
1:00 AM56 °FCool.6 mph77%30.15 "HgN/A
12:00 AM55 °FCool.6 mph79%30.18 "HgN/A
10:00 PM
Tue, Mar 31
59 °FCool.2 mph74%30.18 "HgN/A
9:00 PM60 °FCool.3 mph77%30.20 "HgN/A
7:00 PM69 °FMild.6 mph52%30.17 "HgN/A
6:00 PM74 °FMild.7 mph43%30.16 "HgN/A
4:00 PM76 °FMild.9 mph43%30.18 "HgN/A
3:00 PM78 °FPleasantly warm.7 mph38%30.19 "HgN/A
Weather by CustomWeather, © 2015

See weather overviewHow to use our weather pages